User: anonymous   Login
Location: Aiyekoto
(8.4333°N, 4.3667°E)
Time: 02:21:25
(UTC+00:00)
Language:

Centaur D-1A AC-31 - Orbit

View from above orbital plane
View from above orbital plane
View from above satellite
View from above satellite

Ground track
Ground track

The orbit data is extracted from the following two-line orbital elements,

1 06797U 73058B   21127.08800447 -.00000137  00000-0  20092-3 0  9994
2 06797  27.6564  87.9118 7230336 349.6135   0.9876  2.21648291385898
Epoch (UTC): 07 May 2021 02:06:43
Eccentricity: 0.7230336
inclination: 27.6564°
perigee height: 504 km
apogee height: 36435 km
right ascension of ascending node: 87.9118°
argument of perigee: 349.6135°
revolutions per day: 2.21648291
mean anomaly at epoch: 0.9876°
orbit number at epoch: 38589

The dashed part of the orbit path shows where the satellite is in the earth's shadow,  

DLR